Location: Il Ritiro
(43.4167°N, 13.1333°E)
Time: 17:12:43
(UTC+00:00)

Cosmos 864 Rocket - Pass Details

Date: 05 July 2020
Orbit: 953 x 991 km, 82.9° (Epoch: 11 August)

Event Time Altitude Azimuth Distance (km) Brightness Sun altitude
Exits shadow 22:52:05 51° 179° (S) 1,208 4.5 -23.8°
Maximum altitude 22:53:48 85° 97° (E) 987 4.4 -23.8°
Drops below altitude 10° 23:00:07 10° 9° (N) 2,749 7.9 -23.9°
Sets 23:02:39 0° 9° (N) 3,705 8.9 -23.9°
